• In Germany
  • List of Countries
  • For 7 days
  • Water Temperature
  • Satellite Maps
  • Weather Map
  • Weather Widgets
  • user-avatar
    Login

    Hourly Weather Pasto

    Today, 26 September, Tuesday

    Time Temperature Precipitation Wind Pressure Humidity
    00:00 +8°C° 0 mm 2 mps 548 mmHg 79%
    01:00 +8°C° 0 mm 2 mps 548 mmHg 77%
    02:00 +8°C° 0 mm 2 mps 547 mmHg 77%
    03:00 +8°C° 0 mm 2 mps 547 mmHg 77%
    04:00 +8°C° 0 mm 2 mps 547 mmHg 76%
    05:00 +9°C° 0 mm 2 mps 548 mmHg 74%
    06:00 +9°C° 0 mm 2 mps 548 mmHg 73%
    07:00 +10°C° 0 mm 2 mps 549 mmHg 71%
    08:00 +13°C° 0 mm 2 mps 550 mmHg 61%
    09:00 +16°C° 0 mm 3 mps 551 mmHg 51%
    10:00 +18°C° 0 mm 3 mps 553 mmHg 41%
    11:00 +19°C° 0 mm 4 mps 553 mmHg 39%
    12:00 +19°C° 0 mm 4 mps 553 mmHg 37%
    13:00 +20°C° 0 mm 4 mps 552 mmHg 36%
    14:00 +19°C° 0 mm 4 mps 551 mmHg 39%
    15:00 +19°C° 0 mm 4 mps 551 mmHg 43%
    16:00 +18°C° 0 mm 3 mps 550 mmHg 47%
    17:00 +14°C° 0 mm 3 mps 549 mmHg 56%
    18:00 +13°C° 0 mm 2 mps 548 mmHg 65%
    19:00 +11°C° 0 mm 1 mps 547 mmHg 75%
    20:00 +9°C° 0 mm 2 mps 547 mmHg 75%
    21:00 +9°C° 0 mm 2 mps 548 mmHg 75%
    22:00 +9°C° 0 mm 2 mps 548 mmHg 76%
    23:00 +9°C° 0 mm 2 mps 548 mmHg 77%

    Tomorrow, 27 September, Wednesday

    Time Temperature Precipitation Wind Pressure Humidity
    00:00 +8°C° 0 mm 2 mps 547 mmHg 78%
    01:00 +9°C° 0 mm 1 mps 547 mmHg 79%
    02:00 +9°C° 0 mm 1 mps 547 mmHg 79%
    03:00 +9°C° 0 mm 1 mps 547 mmHg 80%
    04:00 +9°C° 0 mm 1 mps 546 mmHg 81%
    05:00 +10°C° 0 mm 1 mps 547 mmHg 78%
    06:00 +11°C° 0 mm 1 mps 548 mmHg 75%
    07:00 +11°C° 0 mm 1 mps 548 mmHg 72%
    08:00 +14°C° 0 mm 2 mps 550 mmHg 63%
    09:00 +16°C° 0 mm 2 mps 551 mmHg 54%
    10:00 +19°C° 0 mm 3 mps 553 mmHg 45%
    11:00 +19°C° 0.1 mm 3 mps 552 mmHg 45%
    12:00 +19°C° 0.1 mm 3 mps 552 mmHg 45%
    13:00 +20°C° 0.1 mm 4 mps 551 mmHg 45%
    14:00 +19°C° 0.4 mm 3 mps 551 mmHg 50%
    15:00 +18°C° 0.4 mm 3 mps 550 mmHg 54%
    16:00 +17°C° 0.4 mm 3 mps 549 mmHg 59%
    17:00 +15°C° 0.3 mm 2 mps 548 mmHg 67%
    18:00 +13°C° 0.3 mm 2 mps 548 mmHg 76%
    19:00 +12°C° 0.3 mm 1 mps 547 mmHg 85%
    20:00 +11°C° 0.2 mm 1 mps 548 mmHg 85%
    21:00 +11°C° 0.2 mm 1 mps 548 mmHg 86%
    22:00 +11°C° 0.2 mm 1 mps 548 mmHg 86%
    23:00 +11°C° 0.1 mm 1 mps 548 mmHg 86%

    Day after tomorrow, 28 September, Thursday

    Time Temperature Precipitation Wind Pressure Humidity
    00:00 +10°C° 0.1 mm 1 mps 548 mmHg 86%
    01:00 +10°C° 0.1 mm 1 mps 547 mmHg 86%
    02:00 +10°C° 0 mm 1 mps 547 mmHg 86%
    03:00 +10°C° 0 mm 1 mps 546 mmHg 86%
    04:00 +10°C° 0 mm 1 mps 546 mmHg 86%
    05:00 +10°C° 0 mm 1 mps 547 mmHg 82%
    06:00 +11°C° 0 mm 1 mps 548 mmHg 78%
    07:00 +12°C° 0 mm 1 mps 549 mmHg 74%
    08:00 +14°C° 0 mm 2 mps 550 mmHg 67%
    09:00 +16°C° 0 mm 2 mps 551 mmHg 60%
    10:00 +18°C° 0 mm 3 mps 553 mmHg 54%
    11:00 +18°C° 0.3 mm 3 mps 552 mmHg 54%
    12:00 +18°C° 0.3 mm 3 mps 551 mmHg 54%
    13:00 +18°C° 0.3 mm 3 mps 551 mmHg 55%
    14:00 +17°C° 0.6 mm 2 mps 550 mmHg 59%
    15:00 +17°C° 0.6 mm 2 mps 549 mmHg 64%
    16:00 +16°C° 0.6 mm 2 mps 548 mmHg 68%
    17:00 +15°C° 0.8 mm 2 mps 548 mmHg 75%
    18:00 +13°C° 0.8 mm 2 mps 548 mmHg 83%
    19:00 +12°C° 0.8 mm 1 mps 548 mmHg 90%
    20:00 +12°C° 0.3 mm 1 mps 548 mmHg 90%
    21:00 +11°C° 0.3 mm 1 mps 548 mmHg 91%
    22:00 +11°C° 0.3 mm 1 mps 549 mmHg 91%
    23:00 +11°C° 0.2 mm 1 mps 548 mmHg 90%

    29 September, Friday

    Time Temperature Precipitation Wind Pressure Humidity
    00:00 +11°C° 0.2 mm 1 mps 548 mmHg 89%
    01:00 +11°C° 0.2 mm 1 mps 548 mmHg 89%
    02:00 +10°C° 0.1 mm 1 mps 547 mmHg 89%
    03:00 +10°C° 0.1 mm 1 mps 547 mmHg 89%
    04:00 +10°C° 0.1 mm 1 mps 547 mmHg 89%
    05:00 +10°C° 0 mm 1 mps 548 mmHg 86%
    06:00 +11°C° 0 mm 1 mps 548 mmHg 83%
    07:00 +12°C° 0 mm 1 mps 549 mmHg 81%
    08:00 +13°C° 0 mm 2 mps 550 mmHg 74%
    09:00 +15°C° 0 mm 2 mps 551 mmHg 67%
    10:00 +17°C° 0 mm 3 mps 552 mmHg 60%
    11:00 +17°C° 0.4 mm 3 mps 551 mmHg 60%
    12:00 +17°C° 0.4 mm 3 mps 551 mmHg 61%
    13:00 +17°C° 0.4 mm 3 mps 550 mmHg 61%
    14:00 +16°C° 1 mm 2 mps 550 mmHg 66%
    15:00 +16°C° 1 mm 2 mps 549 mmHg 70%
    16:00 +15°C° 1 mm 2 mps 549 mmHg 74%
    17:00 +14°C° 0.7 mm 2 mps 548 mmHg 80%
    18:00 +13°C° 0.7 mm 1 mps 548 mmHg 85%
    19:00 +12°C° 0.7 mm 1 mps 548 mmHg 91%
    20:00 +11°C° 0.4 mm 1 mps 548 mmHg 91%
    21:00 +11°C° 0.4 mm 1 mps 548 mmHg 91%
    22:00 +11°C° 0.4 mm 1 mps 549 mmHg 91%
    23:00 +11°C° 0.2 mm 1 mps 548 mmHg 90%

    30 September, Saturday

    Time Temperature Precipitation Wind Pressure Humidity
    00:00 +11°C° 0.2 mm 1 mps 548 mmHg 88%
    01:00 +10°C° 0.2 mm 1 mps 547 mmHg 87%
    02:00 +10°C° 0.1 mm 1 mps 547 mmHg 87%
    03:00 +10°C° 0.1 mm 1 mps 547 mmHg 87%
    04:00 +10°C° 0.1 mm 1 mps 547 mmHg 87%
    05:00 +11°C° 0 mm 1 mps 547 mmHg 84%
    06:00 +11°C° 0 mm 1 mps 548 mmHg 82%
    07:00 +11°C° 0 mm 1 mps 549 mmHg 80%
    08:00 +14°C° 0 mm 2 mps 550 mmHg 71%
    09:00 +16°C° 0 mm 2 mps 551 mmHg 63%
    10:00 +18°C° 0 mm 3 mps 552 mmHg 54%
    11:00 +18°C° 0.4 mm 3 mps 552 mmHg 55%
    12:00 +18°C° 0.4 mm 3 mps 551 mmHg 56%
    13:00 +18°C° 0.4 mm 3 mps 550 mmHg 57%
    14:00 +17°C° 0.6 mm 3 mps 550 mmHg 59%
    15:00 +17°C° 0.6 mm 3 mps 549 mmHg 61%
    16:00 +17°C° 0.6 mm 3 mps 549 mmHg 64%
    17:00 +15°C° 0.5 mm 2 mps 548 mmHg 72%
    18:00 +13°C° 0.5 mm 2 mps 548 mmHg 80%
    19:00 +11°C° 0.5 mm 1 mps 548 mmHg 89%
    20:00 +11°C° 0.3 mm 1 mps 548 mmHg 88%
    21:00 +11°C° 0.3 mm 1 mps 548 mmHg 88%
    22:00 +10°C° 0.3 mm 1 mps 548 mmHg 88%
    23:00 +10°C° 0.2 mm 1 mps 547 mmHg 88%

    1 October, Sunday

    Time Temperature Precipitation Wind Pressure Humidity
    00:00 +10°C° 0.2 mm 1 mps 547 mmHg 87%
    01:00 +10°C° 0.2 mm 1 mps 547 mmHg 87%
    02:00 +10°C° 0.1 mm 1 mps 546 mmHg 87%
    03:00 +10°C° 0.1 mm 1 mps 546 mmHg 88%
    04:00 +9°C° 0.1 mm 0 mps 546 mmHg 88%
    05:00 +10°C° 0 mm 1 mps 547 mmHg 86%
    06:00 +11°C° 0 mm 1 mps 547 mmHg 83%
    07:00 +12°C° 0 mm 1 mps 548 mmHg 80%
    08:00 +14°C° 0 mm 1 mps 549 mmHg 72%
    09:00 +16°C° 0 mm 2 mps 550 mmHg 63%
    10:00 +18°C° 0 mm 2 mps 551 mmHg 55%
    11:00 +17°C° 0.3 mm 2 mps 551 mmHg 57%
    12:00 +17°C° 0.3 mm 2 mps 550 mmHg 60%
    13:00 +16°C° 0.3 mm 2 mps 549 mmHg 62%
    14:00 +16°C° 0.4 mm 2 mps 548 mmHg 65%
    15:00 +15°C° 0.4 mm 2 mps 548 mmHg 69%
    16:00 +15°C° 0.4 mm 1 mps 547 mmHg 72%
    17:00 +13°C° 0.6 mm 1 mps 547 mmHg 78%
    18:00 +12°C° 0.6 mm 1 mps 547 mmHg 84%
    19:00 +11°C° 0.6 mm 1 mps 547 mmHg 89%
    20:00 +11°C° 0.3 mm 1 mps 547 mmHg 90%
    21:00 +11°C° 0.3 mm 1 mps 547 mmHg 91%
    22:00 +11°C° 0.3 mm 1 mps 548 mmHg 92%
    23:00 +11°C° 0.2 mm 1 mps 547 mmHg 92%
    Show more